www.pogodaiklimat.ru

Погода и климат >> Архив погоды >> Россия >> Свердловская область >> Таборы


ПОГОДА в Таборах

  • Прогноз погоды в Таборах
  • Монитор погоды в Таборах
  • Климат города

АРХИВ ПОГОДЫ в Таборах

Время (UTC), дата Ветер
(напр.,м/с)
 
Видим.   Явления Облачность Т
(С)
Тd
(С)
f
(%)
Тe
(С)
Тes
(С)
Комфортность P
(гПа)
Po
(гПа)
Тmin
(С)
Tmax
(С)
R
(мм)
R24
(мм)
S
(см)
18 18.05 штиль 0 8000 м дым 10/0
[Ci sp]
+7.0 -0.9 57 +7 +7 1018.6 1011.0
21 18.05 З 1 35 км 10/0
[Ci sp]
+6.5 -2.0 55 +6 +6 1019.1 1011.5
00 19.05 ЮЗ 1 50 км 10/0
[Ac cast Ci fib]
+2.5 -2.3 71 +1 +1 1020.0 1012.3
03 19.05 В 1 50 км 6/0
[Ac cast Ci fib]
+11.7 -0.7 42 +12 +16 1019.9 1012.4 +2.0
06 19.05 З 4 50 км 8/3 300 м
[Cb cap Ci sp]
+17.0 -3.0 25 +17 +22 1018.9 1011.5
09 19.05 ЮЗ 6
{11}
50 км 8/4 300 м
[Cb cap Ac trans]
+19.0 +0.5 29 +19 +20 1016.8 1009.5
12 19.05 Ю 2 50 км {гроза, ливн. осадки} 10/10 420 м
[Cb cap]
+16.4 +6.7 53 +17 +17 1016.5 1009.2
15 19.05 ЮЗ 3 50 км {ливн. осадки} 10/4 300 м
[Cb cap Ac und]
+15.0 +6.5 57 +14 +14 1015.2 1007.9 +20.3
18 19.05 СЗ 2 50 км {ливн. осадки} 10/0
[Ac und]
+10.1 +7.5 84 +9 +9 1015.9 1008.4
21 19.05 штиль 0 50 км 8/0
[Ac trans Ci fib]
+7.7 +5.9 88 +7 +7 1015.7 1008.1
00 20.05 З 2 50 км 8/0
[Ac trans Ci sp]
+8.3 +4.5 77 +7 +7 1015.1 1007.5
03 20.05 З 4 50 км 8/0
[Ac trans Ci fib]
+12.4 +7.0 70 +11 +13 1014.9 1007.5 +4.7
06 20.05 ЮЗ 5 50 км 9/3 300 м
[Cb cap Ac trans Ci fib]
+18.3 +2.2 79 +18 +21 1013.4 1006.1
09 20.05 СЗ 3 12 км слабый ливневой дождь 10/8 500 м
[Cb cap Ac und]
+12.5 +10.1 85 +11 +12 1013.7 1006.3
12 20.05 Ю 4 50 км {ливн. осадки} 9/1 300 м
[Cb cap Ac trans Ci fib]
+15.3 +10.3 72 +14 +16 1011.6 1004.3
15 20.05 ЮЗ 3 50 км 10/3 300 м
[Cb cap Ac As Ci fib]
+15.9 +7.7 58 +16 +16 1009.3 1002.0 +18.4 3
18 20.05 ЮВ 3 50 км 10/0
[Ac und]
+12.0 +7.7 75 +10 +10 1007.6 1000.2
21 20.05 Ю 4 50 км 10/0
[Ac und]
+14.2 +7.0 62 +13 +13 1004.8 997.5
00 21.05 ЮЗ 4 50 км 9/0
[Ac trans Ci fib]
+14.4 +6.5 59 +13 +13 1002.6 995.3
03 21.05 ЮЗ 6
{12}
50 км 4/0
[Ac trans]
+18.0 +6.6 47 +17 +19 1000.9 993.7 +11.6
06 21.05 ЮЗ 8-12
{15}
50 км 8/3 300 м
[Cb cap Ac trans Ci fib]
+22.6 +5.7 33 +23 +24 комфорт 999.0 992.0
09 21.05 З 5-10
{17}
50 км 8/3 300 м
[Cb cap Ci sp]
+22.3 +4.6 32 +23 +27 комфорт 998.7 991.6
12 21.05 СЗ 5 50 км {ливн. осадки} 8/3 300 м
[Cb cap Ac trans Ci fib]
+18.4 +9.5 56 +18 +20 1000.2 993.1
15 21.05 С 2 50 км {ливн. осадки} 10/3 300 м
[Cb cap Ac As Ci fib]
+15.3 +9.4 68 +15 +15 999.6 992.3 +24.4 3
18 21.05 ЮЗ 4 8000 м слабый ливневой дождь 10/10 450 м
[Cb cap]
+12.7 +11.1 90 +11 +11 999.1 991.8
21 21.05 В 2 6000 м слабый ливневой дождь 10/10 500 м
[Cb cap]
+11.4 +10.5 94 +10 +10 996.4 989.1
00 22.05 В 3 6000 м слабый ливневой дождь 10/10 420 м
[Cb cap]
+11.3 +10.5 95 +9 +9 991.8 984.6
03 22.05 С 6-10
{10}
8000 м слабый ливневой дождь 10/10 480 м
[Cb cap]
+8.9 +8.1 95 +5 +5 989.7 982.4 +8.9 12
06 22.05 СЗ 6
{11}
8000 м слабый дождь {ливн. осадки} 10/10 300 м
[Frnb Ns]
+5.4 +4.0 91 0 0 994.1 986.6 +5.4
09 22.05 СЗ 4
{10}
50 км {дождь} 10/10 330 м
[Frnb Ns]
+4.0 +2.2 88 -1 -1 999.3 991.8
12 22.05 СЗ 3 50 км в посл. час морось {дождь} 10/10 270 м
[St]
+4.2 +2.3 87 +1 +1 1002.6 995.1
15 22.05 З 3
{10}
50 км 9/5 300 м
[St Ac trans]
+5.3 +3.0 85 +2 +2 1004.2 996.6 +8.9 2
18 22.05 З 1 50 км 6/0
[Ac trans Ci fib]
+2.1 +1.3 94 0 0 1004.9 997.2
21 22.05 СЗ 3 50 км 8/3 300 м
[Cb cap Ac trans Ci fib]
+2.9 +0.8 86 -1 -1 1005.2 997.6
00 23.05 СЗ 3 50 км 9/0
[Ac trans Cs]
+2.1 -0.6 82 -2 -2 1005.7 998.0
03 23.05 С 3 50 км 9/0
[Ac trans Cs]
+3.7 -1.3 70 0 +3 1004.7 997.1 +0.4
06 23.05 С 4
{10}
50 км 10/3 600 м
[Cu hum Ac und]
+7.3 -1.5 54 +4 +6 1004.6 997.1
09 23.05 С 5 50 км 10/3 600 м
[Sc As trans]
+8.7 -2.9 44 +6 +8 1003.9 996.4
12 23.05 СВ 5
{10}
50 км 10/0
[As trans]
+9.0 -2.8 43 +6 +7 1003.5 996.0
15 23.05 С 4 50 км 10/0
[Ac und]
+8.9 -2.4 45 +6 +7 1003.7 996.2 +9.4
18 23.05 СЗ 2 50 км 9/0
[Ac trans]
+6.6 -1.3 57 +5 +5 1004.7 997.2
21 23.05 СЗ 2 50 км 8/0
[Ac trans]
+5.4 -0.9 64 +3 +3 1004.7 997.1
00 24.05 СЗ 4 50 км 10/0
[Ac und]
+3.9 -0.7 72 -0 -0 1005.4 997.8
03 24.05 С 1 50 км 9/0
[Ac trans]
+4.8 -0.5 69 +4 +7 1006.0 998.5 +3.7
06 24.05 СЗ 4 50 км 9/9 480 м
[Cb cap]
+8.8 -2.5 45 +6 +7 1006.0 998.6
09 24.05 З 4 50 км {ливн. осадки} 9/4 300 м
[Cb cap Ac trans Ci fib]
+10.6 -3.5 37 +9 +12 1005.8 998.4
12 24.05 З 4 50 км {ливн. осадки} 10/4 600 м
[Cu med, cong Ac trans Ci fib]
+13.2 -4.9 28 +12 +13 1005.4 998.0
15 24.05 Ю 4 50 км 10/3 600 м
[Sc diur, vesp Ac trans Ci fib]
+12.5 -4.2 31 +11 +11 1004.7 997.3 +14.3
18 24.05 ЮЗ 3 50 км в посл. час ливневой дождь 10/10 540 м
[Cb cap]
+8.1 +4.0 75 +6 +6 1004.6 997.2
21 24.05 З 6-10
{11}
50 км 10/9 500 м
[Cb cap Ac As Ci sp]
+7.4 +2.8 73 +3 +3 1005.1 997.6
00 25.05 З 6-10
{12}
50 км 3/0
[Ci fib]
+3.9 -3.9 57 -1 -1 1008.4 1000.8
03 25.05 СЗ 6-13
{15}
50 км 6/3 600 м
[Cu hum Ci fib]
+5.5 -5.6 45 +1 +3 1010.8 1003.2 +3.6
06 25.05 СЗ 7-13
{15}
50 км 8/3 1000 м
[Cu hum Ci fib]
+8.7 -6.5 33 +5 +7 1012.7 1005.1
09 25.05 З 6-12
{14}
50 км 8/3 600 м
[Cu hum Ci fib]
+11.2 -7.1 27 +9 +12 1014.4 1006.9
12 25.05 СЗ 5
{14}
50 км 6/4 600 м
[Cu hum Ci fib]
+12.6 -6.4 26 +11 +13 1016.0 1008.6
15 25.05 СЗ 4
{13}
50 км 3/0
[Ci fib]
+11.3 -6.4 28 +10 +10 1017.0 1009.5 +12.6

 

Местоположение метеостанции Таборы (Свердловская область, Россия): широта 58.53 долгота 64.50 высота над уровнем моря 63 м.

В архиве по умолчанию представлена погода в Таборах за последнюю неделю. Архивные данные за месяц целиком и за предыдущие месяцы, начиная с января 2011 года, Вы можете получить, выбрав интересующий диапазон дат из раскрывающегося списка и нажав кнопку "Ввод!".

Внимание! Время в таблицах - всемирное. Для получения местного времени необходимо прибавить поправку, которая в Таборах равна 5 ч.

Смотрите также архив погоды в соседних городах и на ближайших метеорологических станциях:

Погода в Тавде (Свердловская область, Россия) (68 км)
Погода в Туринске (Свердловская область, Россия) (72 км)
Погода в Куминской (Ханты-Мансийский АО, Россия) (94 км)
Погода в Ирбите (Свердловская область, Россия) (135 км)
Погода в Леушах (Ханты-Мансийский АО, Россия) (141 км)
Погода в Гари (Свердловская область, Россия) (160 км)
Погода в Тугулыме (Свердловская область, Россия) (163 км)
Погода в Тюмени (Тюменская область, Россия) (166 км)
Погода в Алапаевске (Свердловская область, Россия) (180 км)
Погода в Ярково (Тюменская область, Россия) (196 км)

Пояснения к столбцам:

Ветер - указаны скорость ветра в м/с - средняя за 10 мин, порывы в срок и между сроками (в фигурных скобках) и направление, откуда дует ветер: С - северный, СВ - северо-восточный, В - восточный, ЮВ - юго-восточный, Ю - южный, ЮЗ - юго-западный, З - западный, СЗ - северо-западный.
Видимость - горизонтальная дальность видимости в метрах или километрах. При видимости от 1 до 10 км при отсутствии осадков обычно наблюдается дымка, при ухудшении видимости до 1 км и менее - туман. В сухую погоду видимость может ухудшаться дымом, пылью или мглою.
Явления - указаны атмосферные явления, наблюдавшиеся в срок или в последний час перед сроком; фигурными скобками обозначены явления, наблюдавшиеся между сроками (за 1-3 часа до срока); квадратными скобками обозначены град или гололедные отложения с указанием их диаметра в мм.
Облачность - указаны через наклонную черту общая и нижняя облачность в баллах и высота нижней границы облаков в метрах; квадратными скобками обозначены формы облаков: Ci - перистые, Cs - перисто-слоистые, Cc - перисто-кучевые, Ac - высококучевые, As - высокослоистые, Sc - слоисто-кучевые, Ns - слоисто-дождевые, Cu - кучевые, Cb - кучево-дождевые. Подробнее классификацию облаков см. в Атласе облаков (PDF).
T - Температура воздуха - температура, измеренная на высоте 2 м над землей.
Td - Температура точки росы - температура, при понижении до которой содержащийся в воздухе водяной пар достигнет насыщения.
f - Относительная влажность воздуха - влажноcть воздуха, измеренная на высоте 2 м над землей.
Te - Эффективная температура - температура, которую ощущает одетый по сезону человек в тени. Характеристика душности погоды. При расчете учитывается влияние влажности воздуха и скорости ветра на теплоощущения человека.
Tes - Эффективная температура на солнце - температура, которую ощущает человек, с поправкой на солнечный нагрев. Характеристика знойности погоды. Зависит от высоты солнца над горизонтом, облачности и скорости ветра. Ночью, в пасмурную погоду, а также при ветре 12 м/с и более поправка равна нулю.
P - Атмосферное давление - приведенное к уровню моря атмосферное давление.
Po - Атмосферное давление - измеренное на уровне метеостанции атмосферное давление.
Tmin - Минимальная температура - минимум температуры воздуха на высоте 2 м над землей.
Tmax - Максимальная температура - максимум температуры воздуха на высоте 2 м над землей.
R - Количество осадков - Количество выпавших осадков за период времени, мм. При наведении курсора мыши на число - период времени, за который выпало указанное количество осадков.
R24 - Количество осадков - Количество выпавших осадков за 24 часа, мм.
S - Снежный покров - Высота снежного покрова, см. При наведении курсора мыши на число - состояние снежного покрова и степень покрытия местности в баллах.